This is the latest recevied weather packets stored in our database for station/object EA7RX-4. If no packets are shown the sender has not sent any weather packets the latest 10 day(s).
| Time | Temp. | Humidity | Pressure | Rain* | Wind** | Luminosity | Snow |
|---|---|---|---|---|---|---|---|
| 1787560803 | 21.11° C | 49% | 1014.9 hPa | 0 mm | - | 509 W/m² | - |
| 1787560203 | 21.11° C | 49% | 1015.1 hPa | 0 mm | - | 505 W/m² | - |
| 1787559603 | 20.56° C | 49% | 1015.2 hPa | 0 mm | - | 455 W/m² | - |
| 1787559003 | 20.56° C | 48% | 1014.9 hPa | 0 mm | - | 385 W/m² | - |
| 1787558403 | 20° C | 49% | 1014.9 hPa | 0 mm | - | 354 W/m² | - |
| 1787557803 | 20° C | 50% | 1014.9 hPa | 0 mm | - | 334 W/m² | - |
| 1787557203 | 19.44° C | 50% | 1014.9 hPa | 0 mm | - | 252 W/m² | - |
| 1787556603 | 19.44° C | 50% | 1014.9 hPa | 0 mm | - | 168 W/m² | - |
| 1787556003 | 19.44° C | 50% | 1014.8 hPa | 0 mm | - | 56 W/m² | - |
| 1787555403 | 19.44° C | 49% | 1014.8 hPa | 0 mm | - | 52 W/m² | - |
| 1787554803 | 19.44° C | 50% | 1014.8 hPa | 0 mm | - | 144 W/m² | - |
| 1787554203 | 18.89° C | 50% | 1014.6 hPa | 0 mm | - | 114 W/m² | - |
| 1787553603 | 18.89° C | 51% | 1014.5 hPa | 0 mm | - | 89 W/m² | - |
| 1787553003 | 18.33° C | 52% | 1014.6 hPa | 0 mm | - | 64 W/m² | - |
| 1787552403 | 18.33° C | 52% | 1014.8 hPa | 0 mm | - | 48 W/m² | - |
| 1787551803 | 18.33° C | 52% | 1014.6 hPa | 0 mm | - | 32 W/m² | - |
| 1787551203 | 18.33° C | 53% | 1014.6 hPa | 0 mm | - | 23 W/m² | - |
| 1787550603 | 18.33° C | 54% | 1014.5 hPa | 0 mm | - | 15 W/m² | - |
| 1787550003 | 18.33° C | 54% | 1014.2 hPa | 0 mm | - | 7 W/m² | - |
| 1787549403 | 18.33° C | 54% | 1014.5 hPa | 0 mm | - | 2 W/m² | - |
| 1787548803 | 18.33° C | 53% | 1014.4 hPa | 0 mm | - | 0 W/m² | - |
| 1787548203 | 18.33° C | 52% | 1014.2 hPa | 0 mm | - | 0 W/m² | - |
| 1787547603 | 18.89° C | 51% | 1014.1 hPa | 0 mm | - | 0 W/m² | - |
| 1787547003 | 18.89° C | 50% | 1014 hPa | 0 mm | - | 0 W/m² | - |
| 1787546403 | 18.89° C | 48% | 1014.1 hPa | 0 mm | - | 0 W/m² | - |
* Rain latest hour (hover to see other rain measurements)
** Current wind speed in m/s (hover to see current wind gust speed)